Stations météo

réclame
Mon MeteoGroup
Altnaharra, Grande-Bretagne (3044): Température de l'air & dewpoint: 14.05.2019 17:00:00 - 20.05.2019 17:00:00 (BST)Altnaharra, Grande-Bretagne (3044): Température de l'air -20cm & Température de l'air -100cm: 14.05.2019 17:00:00 - 20.05.2019 17:00:00 (BST)Altnaharra, Grande-Bretagne (3044): Vitesse du vent & gusts: 14.05.2019 17:00:00 - 20.05.2019 17:00:00 (BST)Altnaharra, Grande-Bretagne (3044): Direction du vent: 14.05.2019 17:00:00 - 20.05.2019 17:00:00 (BST)Altnaharra, Grande-Bretagne (3044): reduced air pressure: 14.05.2019 17:00:00 - 20.05.2019 17:00:00 (BST)Altnaharra, Grande-Bretagne (3044): visibility: 14.05.2019 17:00:00 - 20.05.2019 17:00:00 (BST)Altnaharra, Grande-Bretagne (3044): Ensoleillement: 14.05.2019 17:00:00 - 20.05.2019 17:00:00 (BST)Altnaharra, Grande-Bretagne (3044): Quantités de précipitations: 14.05.2019 17:00:00 - 20.05.2019 17:00:00 (BST)
Date & Time tt [°C] td [°C] tt -20cm [°C] tt -100cm [°C] ff [km/h] ff [knt] fx [km/h] fx [knt] dd ppp [hPa] vv [km] sd [min] rr [mm]
20.05.2019 17:00:00 14,3 9,7 - - 24 13 - - W 1014,0 27 12 0,0
20.05.2019 16:00:00 12,9 9,0 - - 24 13 - - W 1013,8 45 0 0,0
20.05.2019 15:00:00 12,4 9,3 - - 18 10 - - W 1013,6 50 0 0,2
20.05.2019 14:00:00 12,4 9,9 - - 18 10 - - W 1013,4 45 0 0,2
20.05.2019 13:00:00 12,6 9,4 - - 18 10 - - W 1013,2 50 0 0,0
20.05.2019 12:00:00 12,4 10,4 - - 15 8 - - W 1013,0 22 0 0,0
20.05.2019 11:00:00 12,2 10,1 - - 5 3 - - SW 1012,9 28 0 0,2
20.05.2019 10:00:00 11,7 9,8 10,7 9,2 5 3 - - S 1012,6 18 0 0,0
20.05.2019 09:00:00 11,5 10,4 - - 2 1 - - SE 1012,5 - 0 0,0
20.05.2019 08:00:00 10,5 10,1 - - 2 1 - - E 1012,2 - 0 0,2
20.05.2019 07:00:00 9,9 9,7 - - 2 1 - - SW 1011,9 - 0 0,6
20.05.2019 06:00:00 9,7 9,5 - - 4 2 - - W 1011,7 - 0 2,4
20.05.2019 05:00:00 9,8 9,4 - - 4 2 - - N 1011,5 - 0 1,0
20.05.2019 04:00:00 9,9 9,5 - - 8 4 - - NE 1011,3 - 0 0,6
20.05.2019 03:00:00 9,9 9,4 - - 4 2 - - W 1011,3 - 0 1,4
20.05.2019 02:00:00 9,9 9,3 - - 0 0 - - N 1011,4 - 0 0,0
20.05.2019 01:00:00 10,1 9,6 - - 2 1 - - ENE 1011,4 - - 0,2
20.05.2019 00:00:00 10,2 9,8 - - 9 5 - - WSW 1011,2 - 0 0,0
19.05.2019 23:00:00 10,4 10,0 - - 5 3 - - WSW 1011,2 - 0 0,2
19.05.2019 22:00:00 10,5 9,9 - - 5 3 - - WSW 1011,1 - 0 0,4
19.05.2019 21:00:00 10,8 9,9 - - 8 4 - - SW 1010,6 - 0 0,2
19.05.2019 20:00:00 11,7 9,8 - - 4 2 - - W 1010,2 - 0 0,0
19.05.2019 19:00:00 11,5 9,9 - - 11 6 - - NW 1009,9 - 0 0,0
19.05.2019 18:00:00 12,0 9,3 - - 15 8 - - WNW 1009,7 - 0 0,0
19.05.2019 17:00:00 12,8 9,8 - - 11 6 - - WNW 1009,5 - 0 0,0
19.05.2019 16:00:00 13,0 9,4 - - 9 5 - - S 1009,3 - 0 0,0
19.05.2019 15:00:00 14,7 7,6 - - 4 2 - - SSE 1008,8 - 0 0,0
19.05.2019 14:00:00 15,1 8,2 - - 11 6 - - ENE 1008,7 - 36 0,0
19.05.2019 13:00:00 14,1 9,4 - - 11 6 - - E 1008,8 - 0 0,0
19.05.2019 12:00:00 13,0 8,7 - - 4 2 - - NNW 1008,8 - 0 0,0
19.05.2019 11:00:00 12,3 8,7 - - 9 5 - - ENE 1008,9 - 0 0,0
19.05.2019 10:00:00 12,2 9,5 10,5 9,0 13 7 - - ENE 1008,7 - 18 0,0
19.05.2019 09:00:00 11,7 9,5 - - 11 6 - - ENE 1008,6 - 0 0,0
19.05.2019 08:00:00 10,9 9,5 - - 13 7 - - ENE 1008,5 - 0 0,0
19.05.2019 07:00:00 10,2 9,2 - - 13 7 - - NE 1008,3 - 0 0,0
19.05.2019 06:00:00 9,8 8,6 - - 16 9 - - ENE 1008,1 - 0 0,0
19.05.2019 05:00:00 9,4 8,4 - - 13 7 - - NE 1008,2 - 0 0,0
19.05.2019 04:00:00 9,7 9,2 - - 16 9 - - NNE 1008,2 - 0 0,0
19.05.2019 03:00:00 9,4 8,9 - - 4 2 - - WNW 1008,4 - 0 0,0
19.05.2019 02:00:00 9,6 9,3 - - 2 1 - - WSW 1008,5 - 0 0,0
19.05.2019 01:00:00 9,6 9,2 - - 11 6 - - ENE 1008,8 - - 0,0
19.05.2019 00:00:00 9,6 9,2 - - 8 4 - - N 1008,9 - 0 0,0
18.05.2019 23:00:00 9,5 9,0 - - 9 5 - - NNE 1009,2 - 0 0,0
18.05.2019 22:00:00 9,5 8,7 - - 8 4 - - NNE 1009,4 - 0 0,0
18.05.2019 21:00:00 9,6 8,8 - - 11 6 - - NNE 1009,3 - 0 0,4
18.05.2019 20:00:00 9,8 8,7 - - 11 6 - - NE 1009,4 - 0 0,2
18.05.2019 19:00:00 10,4 8,9 - - 13 7 - - NE 1009,3 - 0 0,0
18.05.2019 18:00:00 10,8 8,7 - - 18 10 - - ENE 1009,4 - 0 0,0
18.05.2019 17:00:00 11,0 9,2 - - 15 8 - - ENE 1009,6 - 0 1,0
18.05.2019 16:00:00 11,7 9,7 - - 13 7 - - ENE 1009,6 - 0 0,0
18.05.2019 15:00:00 11,1 9,8 - - 13 7 - - NE 1010,1 - 0 0,6
18.05.2019 14:00:00 11,6 9,2 - - 13 7 - - ENE 1010,3 - 0 0,4
18.05.2019 13:00:00 12,1 8,9 - - 9 5 - - N 1010,7 - 0 0,2
18.05.2019 12:00:00 11,4 8,6 - - 5 3 - - N 1011,2 - 0 0,0
18.05.2019 11:00:00 11,0 8,2 - - 8 4 - - E 1011,8 - 0 0,0
18.05.2019 10:00:00 10,4 7,8 10,4 8,9 4 2 - - E 1012,1 - 0 0,0
18.05.2019 09:00:00 9,2 7,7 - - 8 4 - - SE 1012,6 - 0 0,0
18.05.2019 08:00:00 8,9 7,1 - - 11 6 - - NE 1012,9 - 0 0,0
18.05.2019 07:00:00 7,1 6,5 - - 4 2 - - N 1013,2 - 0 0,0
18.05.2019 06:00:00 4,7 3,8 - - 4 2 - - WNW 1013,5 - 0 0,0
18.05.2019 05:00:00 5,4 4,0 - - 4 2 - - W 1014,3 - 0 0,0
18.05.2019 04:00:00 6,3 4,7 - - 8 4 - - W 1014,9 - 0 0,0
18.05.2019 03:00:00 8,2 5,5 - - 8 4 - - WSW 1015,6 - 0 0,0
18.05.2019 02:00:00 8,2 5,3 - - 8 4 - - N 1016,0 - 0 0,0
18.05.2019 01:00:00 8,6 5,7 - - 13 7 - - N 1016,7 - - 0,0
18.05.2019 00:00:00 8,1 4,1 - - 16 9 - - N 1017,1 - 0 0,0
17.05.2019 23:00:00 8,5 3,8 - - 13 7 - - NE 1017,4 - 0 0,0
17.05.2019 22:00:00 9,3 3,6 - - 13 7 - - NNE 1017,5 - 24 0,0
17.05.2019 21:00:00 11,7 3,4 - - 16 9 - - NE 1017,1 - 60 0,0
17.05.2019 20:00:00 14,5 1,8 - - 16 9 - - E 1017,1 - 60 0,0
17.05.2019 19:00:00 15,6 0,4 - - 22 12 - - ENE 1017,0 - 60 0,0
17.05.2019 18:00:00 16,8 1,0 - - 26 14 - - ENE 1017,3 - 60 0,0
17.05.2019 17:00:00 17,9 3,8 - - 22 12 - - ENE 1017,4 - 60 0,0
17.05.2019 16:00:00 18,5 3,7 - - 26 14 - - ENE 1017,8 - 60 0,0
17.05.2019 15:00:00 18,0 2,5 - - 24 13 - - ENE 1018,3 - 60 0,0
17.05.2019 14:00:00 18,2 4,1 - - 22 12 - - E 1018,6 - 24 0,0
17.05.2019 13:00:00 16,1 3,7 - - 18 10 - - E 1019,1 - 0 0,0
17.05.2019 12:00:00 14,7 3,1 - - 15 8 - - E 1019,7 - 0 0,0
17.05.2019 11:00:00 14,1 2,7 - - 22 12 - - E 1020,1 - 0 0,0
17.05.2019 10:00:00 13,8 2,0 10,5 8,7 21 11 - - ESE 1020,2 - 18 0,0
17.05.2019 09:00:00 12,7 1,6 - - 15 8 - - NE 1020,3 - 0 0,0
17.05.2019 08:00:00 10,5 1,7 - - 9 5 - - NNW 1020,6 - 6 0,0
17.05.2019 07:00:00 8,0 4,2 - - 13 7 - - W 1020,8 - 6 0,0
17.05.2019 06:00:00 4,5 1,4 - - 9 5 - - WSW 1020,8 - 0 0,0
17.05.2019 05:00:00 3,1 1,1 - - 4 2 - - WSW 1020,9 - 0 0,0
17.05.2019 04:00:00 3,4 1,5 - - 8 4 - - SW 1020,8 - 0 0,0
17.05.2019 03:00:00 2,4 0,9 - - 8 4 - - WNW 1020,9 - 0 0,0
17.05.2019 02:00:00 2,7 1,8 - - 9 5 - - W 1020,9 - 0 0,0
17.05.2019 01:00:00 3,4 1,7 - - 4 2 - - SSW 1020,8 - - 0,0
17.05.2019 00:00:00 4,6 2,0 - - 2 1 - - SSE 1020,5 - 0 0,0
16.05.2019 23:00:00 8,2 2,9 - - 9 5 - - WSW 1020,2 - 0 0,0
16.05.2019 22:00:00 11,6 3,8 - - 21 11 - - NNE 1019,7 - 6 0,0
16.05.2019 21:00:00 12,5 4,5 - - 21 11 55 30 NE 1019,5 - 60 0,0
16.05.2019 20:00:00 14,9 3,6 - - 41 22 59 32 ESE 1018,3 - 30 0,0
16.05.2019 19:00:00 17,0 3,4 - - 44 24 61 33 ESE 1018,0 - 48 0,0
16.05.2019 18:00:00 17,7 4,3 - - 41 22 57 31 ESE 1018,2 - 42 0,0
16.05.2019 17:00:00 19,1 4,4 - - 31 17 48 26 ESE 1018,7 - 60 0,0
16.05.2019 16:00:00 19,4 5,5 - - 26 14 - - ESE 1019,1 - 60 0,0
16.05.2019 15:00:00 18,4 5,9 - - 24 13 - - ESE 1019,5 - 60 0,0
16.05.2019 14:00:00 19,5 6,8 - - 16 9 - - ESE 1019,9 - 60 0,0
16.05.2019 13:00:00 19,0 7,8 - - 22 12 - - ESE 1020,2 - 60 0,0
16.05.2019 12:00:00 18,7 7,8 - - 15 8 - - E 1020,7 - 60 0,0
16.05.2019 11:00:00 18,2 8,5 - - 11 6 - - ENE 1020,9 - 60 0,0
16.05.2019 10:00:00 14,8 8,4 10,2 8,5 9 5 - - W 1021,5 - 54 0,0
16.05.2019 09:00:00 13,1 9,0 - - 4 2 - - NNE 1022,1 - 60 0,0
16.05.2019 08:00:00 9,7 8,6 - - 8 4 - - ESE 1022,6 - 60 0,0
16.05.2019 07:00:00 7,1 7,1 - - 2 1 - - E 1023,1 - 48 0,0
16.05.2019 06:00:00 3,1 2,9 - - 2 1 - - WNW 1023,4 - 0 0,0
16.05.2019 05:00:00 2,2 2,0 - - 2 1 - - SW 1023,5 - 0 0,0
16.05.2019 04:00:00 2,1 1,5 - - 4 2 - - W 1023,8 - 0 0,0
16.05.2019 03:00:00 3,7 3,2 - - 2 1 - - WSW 1023,9 - 0 0,0
16.05.2019 02:00:00 4,8 4,2 - - 2 1 - - W 1024,3 - 0 0,0
16.05.2019 01:00:00 5,4 4,6 - - 8 4 - - W 1024,4 - - 0,0
16.05.2019 00:00:00 7,1 5,9 - - 4 2 - - W 1024,4 - 0 0,0
15.05.2019 23:00:00 8,9 6,6 - - 8 4 - - W 1024,4 - 0 0,0
15.05.2019 22:00:00 13,2 7,6 - - 2 1 - - SW 1024,4 - 0 0,0
15.05.2019 21:00:00 15,9 8,4 - - 21 11 - - NE 1024,1 - 0 0,0
15.05.2019 20:00:00 18,6 8,4 - - 22 12 - - ENE 1023,8 - 0 0,0
15.05.2019 19:00:00 20,1 8,3 - - 22 12 - - ENE 1023,8 - 0 0,0
15.05.2019 18:00:00 20,8 7,9 - - 8 4 - - NNE 1024,0 - 42 0,0
15.05.2019 17:00:00 20,9 7,2 - - 9 5 - - N 1024,6 - 60 0,0
15.05.2019 16:00:00 21,7 6,2 - - 18 10 - - N 1024,8 - 60 0,0
15.05.2019 15:00:00 21,5 5,7 - - 22 12 - - N 1025,1 - 60 0,0
15.05.2019 14:00:00 22,4 7,2 - - 15 8 - - NNE 1025,2 - 60 0,0
15.05.2019 13:00:00 22,1 3,3 - - 8 4 - - ESE 1025,5 - 60 0,0
15.05.2019 12:00:00 21,3 4,4 - - 5 3 - - W 1025,7 - 60 0,0
15.05.2019 11:00:00 20,3 6,7 - - 4 2 - - SE 1026,2 - 60 0,0
15.05.2019 10:00:00 17,5 7,5 9,7 8,4 4 2 - - S 1026,7 - 60 0,0
15.05.2019 09:00:00 14,9 7,3 - - 4 2 - - ESE 1027,1 - 60 0,0
15.05.2019 08:00:00 11,0 8,3 - - 2 1 - - N 1027,5 - 60 0,0
15.05.2019 07:00:00 5,3 5,2 - - 2 1 - - ENE 1027,8 - 48 0,0
15.05.2019 06:00:00 1,8 1,6 - - 4 2 - - W 1028,1 - 0 0,0
15.05.2019 05:00:00 1,3 1,0 - - 4 2 - - WNW 1028,6 - 0 0,0
15.05.2019 04:00:00 1,6 1,4 - - 4 2 - - W 1028,7 - 0 0,0
15.05.2019 03:00:00 1,6 1,3 - - 4 2 - - WNW 1029,2 - 0 0,0
15.05.2019 02:00:00 1,8 1,4 - - 2 1 - - W 1029,7 - 0 0,0
15.05.2019 01:00:00 2,1 1,4 - - 5 3 - - W 1030,1 - - 0,0
15.05.2019 00:00:00 3,4 1,6 - - 4 2 - - WNW 1030,5 - 0 0,0
14.05.2019 23:00:00 5,4 3,3 - - 5 3 - - WNW 1030,6 - 0 0,0
14.05.2019 22:00:00 8,5 3,0 - - 4 2 - - WNW 1030,7 - 0 0,0
14.05.2019 21:00:00 12,3 4,4 - - 11 6 - - ENE 1030,5 - 0 0,0
14.05.2019 20:00:00 13,9 4,8 - - 9 5 - - NNE 1030,5 - 6 0,0
14.05.2019 19:00:00 15,5 5,0 - - 15 8 - - NNE 1030,5 - 12 0,0
14.05.2019 18:00:00 16,5 5,6 - - 15 8 - - NNE 1030,8 - 18 0,0
14.05.2019 17:00:00 18,3 6,2 - - 16 9 - - NNE 1030,7 - 60 0,0

tt = Température de l'air
td = dewpoint
tt -20cm = Température de l'air -20cm
tt -100cm = Température de l'air -100cm
ff = Vitesse du vent
fx = gusts
dd = Direction du vent
ppp = reduced air pressure
vv = visibility
sd = Ensoleillement
rr = Quantités de précipitations

stations d'obs. à proximité